Regional Weather Roundup
Issued by NWS

Home | Current Version | Previous Version | Graphics & Text | Print | Product List | Glossary On
Versions: 1 2 3 4 5 6 7 8 9 10 11 12 13 14 15 16 17 18 19 20 21 22 23 24 25 26 27
000
ASUS45 KCYS 250810
RWRWY

WYOMING REGIONAL WEATHER ROUNDUP
NATIONAL WEATHER SERVICE CHEYENNE WY
100 AM MST SAT FEB 25 2017

NOTE:  "FAIR" INDICATES FEW OR NO CLOUDS BELOW 12,000 FEET
WITH NO SIGNIFICANT WEATHER AND/OR OBSTRUCTIONS TO VISIBILITY.

WYZ001-250900-
YELLOWSTONE NATIONAL PARK

CITY           SKY/WX    TMP DP  RH WIND       PRES   REMARKS
LK YELLOWSTONE   N/A      1  -1  91 CALM      29.93F
W YELLOWSTONE  NOT AVBL

$$
WYZ002>013-054>058-071-098>099-250900-
NORTHERN WYOMING

CITY           SKY/WX    TMP DP  RH WIND       PRES   REMARKS
JACKSON        MOCLDY    10   5  79 SW7       30.00F WCI   0
CODY           FAIR      14  10  84 CALM      29.97F
GREYBULL       CLOUDY    26  21  81 W6        30.00S WCI  19
WORLAND        CLOUDY    20  16  84 S7        29.99F WCI  11
SHERIDAN       FAIR      22  15  75 W6        29.98F WCI  14
BUFFALO        FAIR      16  13  88 NW3       29.94F
GILLETTE       FAIR      19  14  81 W12       29.95F WCI   7
HULETT         CLOUDY    21  16  79 SW5       29.95F WCI  15
NEWCASTLE      FAIR      12  10  92 CALM      29.98F

$$
WYZ014>020-022>026-101>103-250900-
CENTRAL WYOMING

CITY           SKY/WX    TMP DP  RH WIND       PRES   REMARKS
BIG PINEY      FAIR      -3  -8  79 N6        30.00F WCI -15
PINEDALE       FAIR      -4  -8  84 NW3       30.00S
DUBOIS         FAIR       3  -4  72 NW15      29.92S WCI -15
LANDER         FAIR       9   1  70 NW3       29.95F
RIVERTON       FAIR       8   3  80 W14       29.96F WCI  -8
CASPER         CLOUDY    11   6  81 SW10      29.95S WCI  -3
DOUGLAS        FOG       -1  -5  82 NW5       29.96F VSB 1/4 WCI -11

$$
WYZ021-027>030-104>119-250900-
SOUTHERN WYOMING

CITY           SKY/WX    TMP DP  RH WIND       PRES   REMARKS
EVANSTON       FAIR       6   0  76 S7        30.01F WCI  -6
FORT BRIDGER   FAIR       9   1  69 W13       30.04F WCI  -6
ROCK SPRINGS   FAIR       7   1  76 SW15      30.01  WCI -10
DIXON            N/A     -1  -5  80 CALM      30.08R
RAWLINS        FAIR       9   2  73 W17G24    29.95F WCI  -9
SARATOGA       CLOUDY    10   5  79 SW10      29.97S WCI  -3
LARAMIE        MOCLDY    10   1  67 SW13      29.89S WCI  -5
CHEYENNE       FAIR      13   4  67 SW6       29.92F WCI   4
TORRINGTON     HAZE       4  -1  80 CALM      29.99F VSB 1/4
PINE BLUFFS    CLOUDY     5   1  85 MISG      29.98F

$$




USA.gov is the U.S. government's official web portal to all federal, state and local government web resources and services.